N60SB KPIE-KBDL

Flight info

Callsign N60SB
Flight time N/A
Altitude 23000
Route LLRGO1 CAMJO POLYY Q99 RAANE PEETT SHTGN Q22 RBV Q419 DPK DPK3
Aircraft C130/M-SDE2E3FGRY/H

Departure

Time 2026-04-24 15:27
Airport St. Petersburg Clearwater International Airport (KPIE)

Arrival

Time N/A
Airport Bradley International Airport (KBDL)
Time Latitude Longitude Altitude Speed Heading
2026-04-24 15:10 27.91539 -82.69190 23 ft 0 kts 257°
2026-04-24 15:21 27.91538 -82.69195 23 ft 3 kts 252°
2026-04-24 15:21 27.91516 -82.69215 22 ft 5 kts 186°
2026-04-24 15:21 27.91479 -82.69200 25 ft 5 kts 153°
2026-04-24 15:21 27.91478 -82.69200 25 ft 0 kts 153°
2026-04-24 15:23 27.91443 -82.69127 22 ft 6 kts 89°
2026-04-24 15:23 27.91498 -82.69079 23 ft 5 kts 352°
2026-04-24 15:23 27.91536 -82.69089 23 ft 7 kts 347°
2026-04-24 15:24 27.91840 -82.69142 25 ft 17 kts 351°
2026-04-24 15:25 27.92021 -82.69174 21 ft 15 kts 351°
2026-04-24 15:25 27.92244 -82.69212 23 ft 13 kts 352°
2026-04-24 15:26 27.92330 -82.69097 19 ft 2 kts 98°
2026-04-24 15:27 27.91727 -82.68963 24 ft 107 kts 171°
2026-04-24 15:27 27.89194 -82.68542 1111 ft 153 kts 150°
2026-04-24 15:28 27.87154 -82.64209 3135 ft 160 kts 118°
2026-04-24 15:29 27.87197 -82.61805 3677 ft 194 kts 45°
2026-04-24 15:30 27.91679 -82.61441 4880 ft 238 kts 356°
2026-04-24 15:31 27.99053 -82.62358 5063 ft 275 kts 355°
2026-04-24 15:32 28.06285 -82.64627 5065 ft 278 kts 320°
2026-04-24 15:33 28.11874 -82.70488 5044 ft 275 kts 351°